Ann Arbor, MI

11:14 PM EDT on April 23, 2018 (GMT -0400)
Ann Arbor Municipal

Weather History for KARB - December, 2012

Change the Weather History Date:

Thursday, December 27, 2012

  Actual Average Record
Temperature  
Mean Temperature 19 °F -  
Max Temperature 30 °F 30 °F 60 °F (2008)
Min Temperature 8 °F 15 °F -14 °F (2017)
Degree Days  
Heating Degree Days 46    
Moisture  
Dew Point 19 °F    
Average Humidity 83    
Maximum Humidity 95    
Minimum Humidity 64    
Precipitation  
Precipitation 0.01 in - - ()
Sea Level Pressure  
Sea Level Pressure 30.04 in    
Wind  
Wind Speed 10 mph (NNW)    
Max Wind Speed 16 mph    
Max Gust Speed 23 mph    
Visibility 8 miles    
Events Snow    
Averages and records for this station are not official NWS values.
T = Trace of Precipitation, MM = Missing Value Source: NWS Daily Summary

Daily Weather History Graph

Daily Weather History Graph

Search for Another Location

Airport or City:

Astronomy

Dec. 27, 2012 Rise Set
Actual Time 8:02 AM EST 5:09 PM EST
Civil Twilight 7:31 AM EST 5:41 PM EST
Nautical Twilight 6:55 AM EST 6:17 PM EST
Astronomical Twilight 6:21 AM EST 6:51 PM EST
Moon 4:52 PM EST (12/27) 7:12 AM EST (12/27)
Length of Visible Light 10h 10m
Length of Day
9h 06m
Full, 100% of the Moon is Illuminated
Dec 27
Full
Dec 28
Full
Jan 4
Last Quarter
Jan 11
New
Jan 18
First Quarter

Hourly Weather History & Observations

Time (EST) Temp. Windchill Dew Point Humidity Pressure Visibility Wind Dir Wind Speed Gust Speed Precip Events Conditions
12:10 AM 28.4 °F 19.1 °F 24.8 °F 86% 29.85 in 7.0 mi North 10.4 mph - 0.00 in Snow Light Snow
12:53 AM 28.9 °F 20.4 °F 25.0 °F 85% 29.89 in 9.0 mi North 9.2 mph 16.1 mph 0.00 in Snow Light Snow
1:32 AM 28.4 °F 19.1 °F 24.8 °F 86% 29.86 in 2.5 mi NNW 10.4 mph - 0.00 in Snow Light Snow
1:40 AM 26.6 °F 16.8 °F 24.8 °F 93% 29.86 in 3.0 mi NNW 10.4 mph - 0.01 in Snow Light Snow
1:48 AM 26.6 °F 16.2 °F 24.8 °F 93% 29.87 in 3.0 mi NNW 11.5 mph - 0.01 in Snow Light Snow
1:53 AM 27.0 °F 16.7 °F 21.9 °F 81% 29.90 in 3.0 mi NNW 11.5 mph - 0.01 in Snow Light Snow
2:05 AM 26.6 °F 16.2 °F 23.0 °F 86% 29.87 in 3.0 mi NNW 11.5 mph - 0.00 in Snow Light Snow
2:53 AM 27.0 °F 15.2 °F 23.0 °F 85% 29.94 in 7.0 mi NNW 15.0 mph - 0.00 in Snow Light Snow
3:53 AM 27.0 °F 15.2 °F 23.0 °F 85% 29.94 in 10.0 mi NNW 15.0 mph 23.0 mph 0.00 in   Overcast
4:46 AM 26.6 °F 14.3 °F 23.0 °F 86% 29.91 in 10.0 mi North 16.1 mph - N/A   Overcast
4:53 AM 27.0 °F 15.2 °F 23.0 °F 85% 29.95 in 10.0 mi NNW 15.0 mph 21.9 mph N/A   Overcast
5:53 AM 27.0 °F 15.2 °F 23.0 °F 85% 29.99 in 10.0 mi NNW 15.0 mph 20.7 mph N/A   Overcast
6:10 AM 26.6 °F 14.3 °F 23.0 °F 86% 29.97 in 10.0 mi NNW 16.1 mph 20.7 mph N/A   Overcast
6:17 AM 26.6 °F 14.3 °F 23.0 °F 86% 29.97 in 10.0 mi NNW 16.1 mph - N/A   Overcast
6:53 AM 27.0 °F 16.1 °F 23.0 °F 85% 30.02 in 10.0 mi NNW 12.7 mph - N/A   Overcast
7:53 AM 26.1 °F 14.5 °F 21.9 °F 84% 30.04 in 10.0 mi NNW 13.8 mph - N/A   Overcast
8:53 AM 26.1 °F 15.0 °F 21.9 °F 84% 30.06 in 10.0 mi North 12.7 mph - N/A   Overcast
9:53 AM 26.1 °F 16.2 °F 21.9 °F 84% 30.09 in 10.0 mi North 10.4 mph - N/A   Overcast
10:53 AM 27.0 °F 18.0 °F 21.9 °F 81% 30.11 in 10.0 mi North 9.2 mph - N/A   Overcast
11:53 AM 28.0 °F 20.8 °F 21.9 °F 78% 30.11 in 10.0 mi NNW 6.9 mph - N/A   Scattered Clouds
12:53 PM 28.9 °F 20.4 °F 21.0 °F 72% 30.09 in 10.0 mi NW 9.2 mph - N/A   Scattered Clouds
1:53 PM 30.0 °F 23.2 °F 19.9 °F 66% 30.08 in 10.0 mi NW 6.9 mph - N/A   Clear
2:53 PM 30.9 °F 23.5 °F 21.0 °F 67% 30.09 in 10.0 mi NW 8.1 mph - N/A   Clear
3:53 PM 30.9 °F 24.3 °F 19.9 °F 64% 30.10 in 10.0 mi NNW 6.9 mph - N/A   Clear
4:53 PM 28.9 °F 21.9 °F 19.0 °F 67% 30.12 in 10.0 mi NNW 6.9 mph - N/A   Clear
5:53 PM 27.0 °F 21.6 °F 18.0 °F 69% 30.13 in 10.0 mi NNW 4.6 mph - N/A   Clear
6:53 PM 23.0 °F - 17.1 °F 78% 30.15 in 10.0 mi Calm Calm - N/A   Clear
7:53 PM 14.0 °F 8.2 °F 10.9 °F 88% 30.17 in 10.0 mi West 3.5 mph - N/A   Clear
8:53 PM 10.0 °F 1.8 °F 9.0 °F 95% 30.19 in 10.0 mi West 4.6 mph - N/A   Clear
9:53 PM 12.0 °F 5.9 °F 10.0 °F 92% 30.17 in 8.0 mi WSW 3.5 mph - N/A   Clear
10:10 PM 10.4 °F - 8.6 °F 92% 30.13 in 1.5 mi Calm Calm - N/A   Clear
10:14 PM 10.4 °F - 6.8 °F 85% 30.13 in 0.8 mi Calm Calm - N/A   Clear
10:32 PM 10.4 °F - 8.6 °F 92% 30.13 in 1.5 mi Calm Calm - N/A   Clear
10:35 PM 8.6 °F - 6.8 °F 92% 30.13 in 4.0 mi Calm Calm - N/A   Clear
10:53 PM 8.1 °F - 5.0 °F 87% 30.17 in 6.0 mi Calm Calm - N/A   Clear
11:53 PM 8.1 °F - 3.9 °F 83% 30.18 in 8.0 mi Calm Calm - N/A   Clear